Theta_e
314 313 315 313 310 312 312 313 315 316 316 315 322 326 322 322 320 317 316 315 311 312 320 321 318 319 317 314 312 311 312 311 311 311 309 309 309 308 305 303 302 301 300 299 297 297 296 295 295 295 294 294 293 293 292 290 290 289 287 287 287 285 286 286 285 283 283 284 284 284 284 283 283 283 283 283 283 283 283 283 282 282 282 282 282 282
314 313 314 312 310 311 312 314 317 319 319 317 319 323 321 318 319 317 314 314 312 311 319 320 315 315 315 314 312 311 312 312 312 311 309 308 309 308 305 303 302 301 300 298 297 296 296 295 295 294 294 293 293 292 291 290 289 289 287 286 286 285 285 286 284 283 283 283 283 283 283 283 282 282 282 282 282 282 282 282 282 282 282 281 282 281
316 315 314 311 313 316 312 315 321 321 320 320 318 321 321 317 317 319 315 314 313 314 319 319 313 311 311 311 311 312 313 313 314 311 308 307 308 308 305 303 302 301 301 299 297 296 296 295 295 294 294 293 292 292 290 289 289 288 287 286 285 285 285 285 283 282 283 283 283 283 282 282 282 282 282 282 282 281 282 282 281 281 281 281 281 280
317 315 313 313 316 318 312 313 322 324 320 318 321 322 320 317 316 318 319 315 314 313 314 315 313 312 312 312 310 311 313 313 313 311 309 308 307 307 306 303 301 301 302 300 297 295 295 295 294 294 293 292 292 291 290 289 288 287 286 285 285 284 285 284 282 282 282 282 282 282 282 282 281 281 281 281 281 281 281 281 281 281 280 280 280 280
316 310 312 319 319 318 315 313 317 322 320 315 317 318 315 316 313 314 317 315 316 316 311 311 316 321 318 314 312 311 312 312 311 311 311 310 308 309 308 304 301 301 301 300 298 295 295 294 294 294 293 292 291 291 290 289 288 286 285 285 284 284 285 283 282 281 282 282 282 282 281 281 281 281 281 281 281 281 281 280 280 280 280 279 279 279
314 308 313 323 322 319 317 314 311 314 321 317 314 312 310 311 311 312 316 316 321 322 313 311 319 326 321 314 315 313 311 312 311 312 313 311 308 309 308 303 301 301 300 299 298 295 294 294 294 294 292 291 291 290 290 289 287 286 285 285 284 284 284 282 281 281 281 281 281 281 281 281 281 280 280 280 280 280 280 280 279 279 279 279 279 278
314 310 314 319 319 318 315 314 310 310 322 321 312 311 309 308 308 311 314 314 319 319 312 312 316 320 320 316 316 315 313 313 312 313 314 311 309 309 307 303 300 301 300 299 297 294 294 294 294 293 292 291 291 290 289 288 287 285 285 284 284 284 283 281 281 281 281 281 281 281 281 280 280 280 280 280 280 280 279 279 279 279 279 278 278 278
314 313 315 315 316 319 316 315 311 309 318 319 311 310 309 308 308 310 312 313 316 315 314 318 314 314 320 321 317 315 313 313 314 316 315 312 311 309 307 303 301 301 300 300 298 295 294 294 294 293 291 290 290 289 288 288 286 285 285 284 283 283 283 281 281 281 280 281 280 280 281 280 280 280 279 279 279 279 279 278 278 278 278 278 277 277
312 312 313 314 316 319 315 313 311 310 315 316 312 310 308 308 310 311 312 314 315 315 320 324 317 313 320 323 317 312 311 314 317 318 316 314 312 310 308 304 302 302 300 298 297 295 294 295 294 292 291 290 290 289 288 287 286 285 284 284 283 283 282 281 281 280 280 280 280 280 280 280 279 279 279 279 278 278 278 277 277 277 277 277 277 277
310 310 311 312 314 315 315 316 313 311 314 314 310 308 307 308 311 312 314 315 315 317 324 323 315 313 318 322 317 312 313 317 319 318 316 315 313 311 309 305 302 302 301 297 295 295 295 294 294 292 290 290 289 288 288 287 286 285 284 283 283 283 282 281 280 280 280 280 280 280 280 279 279 278 278 278 278 277 277 277 277 277 277 277 277 276
312 312 310 312 312 310 313 316 314 312 312 313 311 312 313 311 311 313 313 315 318 324 327 320 313 312 316 321 320 316 316 316 316 317 316 315 313 311 310 306 303 302 301 298 294 295 295 294 293 291 290 290 289 288 287 287 286 284 284 283 282 282 281 280 280 280 280 280 279 279 279 279 278 278 278 278 277 277 277 276 276 276 276 276 276 276
319 318 311 312 313 309 311 315 315 314 313 313 315 317 320 318 318 319 319 320 322 325 327 320 313 312 315 321 323 321 320 316 315 315 314 316 314 311 310 307 303 303 301 298 296 295 294 294 292 291 290 289 288 288 287 287 286 284 283 283 282 282 281 280 280 280 280 279 279 279 279 278 278 278 277 277 277 277 276 276 276 276 276 276 275 275
321 316 311 314 314 309 314 318 319 320 316 315 317 318 323 324 322 324 325 323 320 320 322 317 312 313 316 320 321 320 320 318 317 316 314 315 313 311 311 307 304 303 301 299 298 295 293 293 292 290 290 289 288 287 287 286 285 284 283 282 282 282 281 280 280 280 279 279 279 279 279 278 277 277 277 276 276 276 276 276 276 276 275 275 275 275
325 318 315 317 313 309 314 316 316 318 317 315 314 317 323 322 320 324 322 319 319 320 319 313 311 315 318 320 319 319 320 320 319 317 315 314 312 311 310 306 304 302 300 300 299 294 293 293 291 290 290 289 288 287 287 286 284 283 283 282 281 282 281 280 280 279 279 279 279 278 278 278 277 277 276 276 276 276 276 275 275 275 275 275 275 274
322 321 316 315 310 310 313 311 309 312 315 315 312 314 320 317 318 323 321 319 320 320 317 314 313 315 317 319 320 320 320 320 319 317 314 313 312 311 308 305 304 301 299 300 298 294 293 292 291 290 289 289 288 287 286 285 284 283 283 282 281 281 281 280 279 279 279 278 278 278 278 277 277 277 276 276 276 275 275 275 275 275 274 274 274 274
317 316 313 311 308 309 310 308 308 311 316 317 315 318 320 316 316 318 319 318 316 316 318 319 319 317 317 317 316 316 318 317 316 315 312 312 313 311 307 304 303 301 299 300 299 295 293 292 290 290 289 289 288 287 286 285 284 283 282 282 281 281 281 279 279 279 278 278 278 278 277 277 276 276 276 275 275 275 275 274 274 274 274 274 274 273
317 318 315 312 310 309 307 307 308 310 315 318 318 317 312 310 314 316 317 316 313 316 320 319 319 319 317 317 314 312 315 316 316 316 313 313 314 312 309 305 303 301 299 299 298 295 292 291 290 290 289 289 288 287 286 286 284 283 282 282 281 281 280 279 278 278 278 278 278 277 277 276 276 276 275 275 275 275 274 274 274 274 274 273 273 273
311 319 320 314 311 310 305 307 309 309 311 316 318 314 308 309 315 314 315 317 317 319 320 317 318 317 315 320 319 315 317 318 317 317 315 314 314 312 308 304 302 301 299 298 297 293 292 291 290 290 289 289 288 287 286 286 284 283 282 281 280 280 280 279 278 278 278 277 277 277 277 276 276 275 275 275 274 274 274 274 273 273 273 273 273 272
306 318 324 313 311 312 307 308 312 310 309 312 313 310 310 315 318 316 315 318 317 319 320 318 317 316 316 324 322 317 318 316 314 317 316 314 313 310 306 302 301 301 299 298 298 295 292 291 291 290 289 288 288 287 286 286 284 282 282 281 280 280 280 279 278 277 277 277 277 277 276 276 275 275 274 274 274 274 274 273 273 273 273 273 272 272
306 314 322 317 311 310 309 311 317 315 310 311 312 311 315 316 315 315 314 316 317 318 320 319 317 317 322 328 322 316 316 314 314 316 315 314 313 308 305 303 301 301 299 299 299 295 292 291 291 290 289 288 287 287 286 285 284 282 281 281 280 280 280 279 278 277 277 276 276 276 276 275 275 274 274 274 273 273 273 273 273 272 272 272 272 272
309 311 317 321 314 312 314 313 317 318 314 315 317 315 316 315 314 314 313 314 317 318 320 319 318 318 318 321 318 315 316 315 315 316 314 314 312 307 304 303 302 301 300 299 298 295 292 292 291 290 289 288 287 287 286 285 283 282 281 281 280 279 279 279 278 277 276 276 276 276 275 275 274 274 274 273 273 273 273 272 272 272 272 272 271 271
311 310 312 320 320 321 321 309 305 309 311 316 318 317 318 319 319 318 316 316 315 316 319 318 317 317 315 316 316 316 316 315 316 316 315 315 311 306 303 302 301 301 300 300 297 293 292 292 292 291 290 289 288 287 286 284 283 281 281 280 280 279 279 279 278 277 276 275 275 275 275 274 274 273 273 273 273 272 272 272 272 272 271 271 271 271
305 307 310 318 318 314 311 303 301 305 307 309 310 312 316 318 318 319 319 318 314 314 315 315 316 318 316 317 318 318 316 315 317 317 315 315 311 305 303 301 301 301 300 298 295 292 293 293 292 291 290 288 288 286 285 284 282 281 280 280 279 279 279 278 278 276 276 275 275 275 274 274 273 273 273 273 272 272 272 272 271 271 271 271 271 271
303 307 311 318 320 313 308 305 304 305 305 306 309 309 311 314 317 319 316 313 312 314 315 315 317 318 317 319 320 318 315 313 315 316 315 315 311 306 303 301 301 301 299 297 294 292 293 293 291 290 289 288 287 286 285 283 282 280 280 279 279 279 279 278 277 276 275 275 274 274 274 273 273 272 272 272 272 272 271 271 271 271 271 271 270 270
305 310 311 315 317 316 316 314 312 310 309 311 314 311 310 312 313 313 310 308 311 315 315 316 320 319 316 318 316 313 312 311 311 312 313 314 311 307 303 301 301 300 299 298 296 293 292 292 291 289 288 287 287 286 285 283 281 280 280 279 278 279 278 278 277 276 275 274 274 274 273 273 273 272 272 272 272 271 271 271 271 271 270 270 270 270
308 311 310 312 313 311 313 315 313 313 314 314 313 309 309 311 311 311 311 311 314 315 313 317 321 316 310 311 311 309 310 309 308 309 312 313 310 307 304 302 302 301 299 298 297 295 292 291 290 289 288 287 286 285 284 283 281 280 279 279 278 278 278 277 276 275 275 274 274 274 273 272 272 272 272 272 271 271 271 271 271 271 270 270 270 270
308 311 309 313 317 313 311 312 309 308 309 310 310 309 310 311 310 312 314 314 316 315 314 316 317 313 311 311 309 309 308 308 307 309 312 312 309 307 305 304 303 301 299 298 297 296 293 290 289 288 288 287 286 285 284 283 281 280 279 278 278 278 277 277 276 275 274 274 274 273 273 272 272 272 271 271 271 271 271 271 270 270 270 270 270 270
308 312 310 310 314 313 312 311 308 306 306 306 307 309 312 312 309 309 311 313 314 313 313 316 316 313 312 309 308 308 307 307 308 309 311 310 307 307 305 304 303 300 299 298 297 297 295 292 289 288 288 287 286 285 284 283 281 279 279 278 277 277 277 276 275 275 274 274 273 273 272 272 272 271 271 271 271 271 271 270 270 270 270 270 269 269
306 310 309 307 310 312 311 309 306 305 306 305 305 307 309 310 309 309 309 309 310 310 311 313 312 310 309 308 307 308 307 306 308 309 310 309 307 307 305 304 302 301 300 299 297 297 295 292 289 288 287 286 285 284 284 282 281 279 278 278 277 277 276 276 275 274 274 273 273 273 272 272 271 271 271 271 271 271 270 270 270 270 270 269 269 269
304 312 311 308 310 310 309 309 309 309 310 309 308 308 308 309 309 309 308 307 307 308 309 307 308 307 306 306 306 306 306 307 308 310 311 310 308 308 307 305 303 301 300 298 297 296 294 290 288 288 287 285 285 284 283 282 280 279 278 277 277 276 276 276 275 274 273 273 273 272 272 271 271 271 271 271 271 270 270 270 270 269 269 269 269 269
301 311 313 309 310 311 311 315 314 312 313 311 308 309 308 308 309 307 306 305 306 308 308 305 307 307 305 306 308 308 309 310 310 312 312 311 309 307 306 305 303 301 299 297 297 296 293 289 288 287 286 285 284 283 283 281 279 278 278 277 276 276 276 275 274 274 273 273 272 272 271 271 271 271 271 271 270 270 270 270 270 269 269 269 269 269
300 309 314 310 309 312 315 317 313 309 310 311 312 316 314 312 314 313 309 307 309 312 311 308 310 311 308 310 311 311 311 312 313 314 312 310 309 306 305 305 303 301 299 297 296 296 293 289 287 287 286 285 284 283 282 281 279 278 277 277 276 275 275 275 274 273 273 272 272 271 271 271 271 270 270 270 270 270 270 270 269 269 269 268 268 268
302 306 311 308 309 317 319 314 310 309 313 317 319 323 321 317 318 318 313 311 310 310 312 313 312 310 309 310 311 311 311 312 313 312 310 309 308 306 304 304 303 301 298 297 296 295 292 289 287 286 285 284 283 283 282 280 278 277 277 276 276 275 275 274 273 273 273 272 271 271 271 271 270 270 270 270 270 270 269 269 269 269 268 268 268 268
304 305 308 306 309 319 319 312 310 310 313 317 318 319 318 314 317 319 317 317 313 308 310 313 311 309 309 310 311 311 311 311 312 310 308 307 307 307 305 304 303 300 298 296 295 291 289 288 287 286 285 284 283 283 282 279 278 277 276 276 275 275 275 274 273 273 272 272 271 271 271 270 270 270 270 270 269 269 269 269 268 268 268 268 268 268
306 306 308 308 307 314 317 312 311 311 315 317 315 314 313 310 313 317 316 317 315 310 310 312 310 309 310 310 310 311 312 312 311 310 309 308 308 307 305 305 303 300 298 297 294 290 288 288 287 286 285 284 283 282 281 279 278 276 276 275 275 274 274 273 273 272 272 271 271 271 271 270 270 270 269 269 269 269 268 268 268 268 268 267 267 267
309 307 308 309 309 312 314 310 307 309 313 313 311 311 312 310 312 313 313 315 317 316 314 312 311 311 311 312 311 311 313 312 309 309 309 308 307 306 305 306 304 300 298 295 293 290 290 289 287 286 285 283 282 281 280 279 277 276 275 275 274 274 274 273 272 272 271 271 271 271 271 270 269 269 269 269 269 269 268 268 268 268 267 267 267 267
306 307 306 308 309 309 309 311 311 310 312 315 316 314 312 312 313 313 313 312 313 314 314 312 313 315 313 312 312 312 313 310 309 311 309 305 305 304 302 302 301 298 295 293 292 291 290 289 287 285 284 283 281 281 279 278 277 276 275 275 274 274 273 273 272 272 271 271 271 271 271 270 269 269 269 269 269 268 268 268 268 267 267 267 267 267
301 302 303 305 309 309 308 312 315 312 311 318 322 315 310 312 314 314 313 311 311 315 315 313 314 315 313 312 312 313 312 310 310 312 309 305 303 301 299 297 296 295 294 292 291 290 289 288 286 285 284 282 281 280 279 278 277 275 275 274 274 273 273 272 272 272 271 271 271 271 270 270 270 269 269 269 268 268 268 268 267 267 267 267 267 267
300 301 302 303 308 311 308 310 314 312 311 318 323 318 313 314 316 315 311 313 319 322 317 315 315 314 313 314 313 311 311 311 310 310 310 308 303 299 298 296 294 294 294 292 291 290 289 288 286 285 284 282 280 280 279 278 276 275 274 274 273 273 273 272 272 271 271 271 271 271 270 270 270 269 268 268 268 268 268 268 267 267 267 267 266 266
301 302 304 305 309 310 307 311 315 312 312 318 319 317 314 312 313 312 310 314 324 324 318 317 316 313 314 315 313 311 312 313 310 309 310 306 299 296 297 296 293 292 292 292 291 290 289 287 286 284 283 281 281 281 280 278 276 275 274 274 273 273 272 272 272 271 271 271 271 271 271 270 270 269 269 268 268 268 268 268 267 267 267 267 267 266
305 304 304 306 311 310 307 310 313 312 315 319 316 315 315 311 309 310 310 314 324 325 322 319 315 313 314 315 313 312 313 312 310 310 307 303 299 297 295 295 295 294 293 292 290 289 288 287 286 285 283 282 282 281 280 278 276 275 274 273 273 273 272 272 272 271 271 271 271 271 271 271 270 269 269 268 268 268 268 268 267 267 267 267 267 266
310 307 304 305 310 309 307 310 312 312 316 318 314 312 311 308 310 312 313 315 318 316 316 315 313 313 314 314 314 313 312 311 311 310 307 305 304 300 294 293 293 292 292 291 290 289 288 286 285 284 283 283 282 281 280 278 277 275 274 273 273 272 272 272 272 271 271 271 271 271 271 271 270 269 269 268 268 268 268 267 267 267 267 267 267 267
312 312 312 312 312 309 308 310 312 313 315 313 310 310 309 309 312 312 310 311 311 309 311 313 313 313 313 313 314 314 314 313 312 310 307 306 304 298 293 293 293 291 291 291 289 289 288 287 285 284 283 282 282 281 280 278 277 276 274 273 273 272 272 272 271 271 271 271 271 271 271 271 271 270 269 268 268 268 267 267 267 267 267 267 267 267
309 310 315 317 312 309 312 315 315 315 319 312 308 309 311 311 311 309 307 307 307 307 310 310 310 313 314 314 315 315 314 313 312 310 308 306 304 298 293 292 292 292 291 291 290 290 289 287 286 284 283 282 281 280 280 279 278 276 275 274 273 272 272 272 271 271 271 271 271 271 271 271 271 270 269 268 268 268 267 267 266 266 267 267 267 267
313 314 317 314 310 311 315 316 313 311 316 314 309 308 309 308 307 308 307 306 305 306 308 308 309 313 315 315 314 313 313 312 311 309 307 307 305 300 294 293 293 293 292 292 291 291 289 288 287 284 282 282 281 280 280 279 278 277 275 274 273 273 272 272 271 271 271 271 271 271 271 271 271 271 270 269 268 268 267 266 266 266 266 267 267 267
313 312 311 309 312 313 309 308 308 305 307 309 307 306 306 306 306 306 306 306 306 306 307 309 310 312 315 315 314 312 311 311 310 309 307 307 305 299 293 293 294 293 293 292 291 290 289 287 286 284 282 281 280 280 280 279 279 278 276 275 273 273 272 272 271 271 271 271 271 271 271 271 271 271 271 270 269 268 267 266 266 266 266 267 267 268
312 307 306 308 310 309 306 307 308 305 305 307 305 304 305 305 306 306 306 307 306 307 308 310 311 313 314 313 312 312 311 310 309 308 306 306 306 298 292 292 293 293 293 292 291 291 289 287 285 284 283 281 280 280 280 280 279 278 276 274 273 273 272 271 271 271 271 271 271 271 270 270 270 270 270 270 269 268 267 266 266 266 266 267 268 269
310 304 306 309 307 305 305 307 305 303 305 305 303 303 303 304 305 305 305 306 306 308 309 306 307 312 315 313 312 313 311 309 308 307 305 305 303 297 292 293 294 293 293 293 292 291 289 287 286 285 284 282 281 280 280 280 280 278 276 274 273 272 272 271 271 271 271 271 271 270 270 270 269 269 269 269 269 268 266 266 266 266 267 267 268 270
308 303 307 310 307 304 305 305 303 304 306 305 305 306 306 306 307 308 309 309 310 313 314 309 305 306 308 309 310 310 309 308 307 305 304 305 302 296 293 294 295 294 293 293 292 291 290 289 288 287 285 284 283 281 281 281 280 278 276 275 273 272 271 271 271 270 270 271 270 270 269 269 269 269 268 268 268 268 267 266 266 266 267 268 269 269
306 305 306 307 306 306 306 305 305 305 305 305 306 308 310 312 313 313 313 311 310 313 315 312 307 302 300 300 303 305 308 309 305 302 302 302 299 295 295 295 294 294 294 292 292 291 290 289 289 288 286 285 283 281 281 281 280 279 277 275 274 273 271 271 270 270 270 270 270 269 269 269 269 269 268 267 267 267 268 268 268 267 267 268 269 269
305 305 306 307 308 308 305 304 305 305 304 304 304 306 310 313 313 312 308 307 308 308 308 309 308 305 304 301 298 300 306 306 301 300 301 300 296 296 296 296 295 294 293 292 291 290 289 289 289 287 286 285 284 282 281 281 280 279 277 276 275 273 271 271 270 270 270 270 270 269 269 269 269 268 268 267 266 265 266 267 268 268 268 267 268 268
Wind_Speed
5 6 5 3 3 5 5 3 2 5 2 3 3 4 4 2 2 4 3 4 2 3 5 4 4 6 6 7 8 7 6 5 3 1 2 4 5 4 4 4 3 3 5 7 11 13 14 16 18 20 21 20 20 21 24 27 27 28 30 28 30 31 30 28 31 35 33 31 32 30 30 31 31 30 29 30 30 32 32 31 33 33 33 34 33 32
6 8 3 3 3 5 5 5 3 2 3 4 4 3 2 1 4 4 2 3 2 3 5 3 4 8 7 7 7 7 6 5 5 2 1 4 5 5 5 3 3 3 4 7 9 10 13 15 16 20 21 19 19 21 24 27 27 26 28 29 28 30 30 27 30 33 30 29 29 28 28 29 29 28 28 29 30 31 31 30 33 32 32 34 33 33
7 7 5 5 2 4 5 6 7 5 5 5 2 3 2 1 3 4 3 2 2 2 4 4 6 9 8 6 7 8 7 5 5 5 3 3 4 6 4 2 4 4 5 5 6 8 11 13 16 20 20 18 19 21 23 27 26 24 27 29 28 29 29 27 30 32 29 27 26 25 26 27 27 26 27 27 28 30 29 30 32 31 32 34 33 33
5 4 8 5 4 7 8 8 9 7 5 4 3 4 1 3 2 2 5 4 1 1 2 3 5 8 7 3 5 7 5 4 4 6 3 1 4 6 3 3 4 4 5 5 5 7 10 13 16 19 20 19 20 22 24 26 25 24 27 29 28 29 28 27 30 31 27 25 24 24 23 24 24 24 25 26 29 31 30 31 33 31 33 34 33 34
4 5 7 5 6 7 7 8 9 6 4 3 3 4 1 4 1 3 5 4 3 3 2 3 5 5 5 2 4 4 1 3 3 2 2 4 5 6 4 3 3 4 4 4 5 6 9 12 14 18 19 19 20 22 25 25 24 25 27 27 27 27 26 27 29 30 28 26 26 26 25 25 25 25 26 27 31 32 31 33 34 33 33 34 34 34
4 5 4 6 6 7 7 6 6 3 2 4 1 3 3 3 2 4 5 5 5 5 2 2 4 5 5 3 5 4 1 3 2 1 3 5 6 6 5 1 2 4 3 4 4 5 10 12 14 17 18 19 20 22 24 22 23 26 26 25 26 26 25 27 28 29 28 27 28 29 28 28 27 26 27 28 30 30 30 31 32 32 33 33 34 34
4 7 6 6 4 6 7 3 2 2 4 3 2 5 5 3 1 2 4 4 2 3 4 3 3 4 6 4 7 4 2 5 3 2 5 5 5 5 4 1 1 3 3 4 4 6 10 11 13 15 16 18 18 21 22 20 22 26 25 24 26 25 24 27 27 28 28 27 28 28 27 27 26 25 26 28 29 28 28 29 29 30 31 32 33 33
4 9 9 9 6 7 6 3 3 2 5 2 1 6 5 3 2 2 5 3 1 2 5 2 3 2 5 5 7 3 3 5 5 5 7 5 5 6 5 3 1 1 3 2 3 5 9 10 12 13 14 16 17 20 20 19 22 26 24 23 25 23 24 26 26 27 28 27 27 27 26 26 25 25 26 28 28 27 28 29 29 29 30 32 32 32
2 6 8 8 8 5 3 4 5 1 2 4 4 5 4 4 4 4 6 3 1 2 4 5 1 1 5 6 5 1 2 6 7 7 8 6 6 6 5 4 2 1 2 1 2 5 7 10 11 11 13 14 16 19 19 17 22 26 23 22 24 23 24 26 26 27 27 27 26 26 25 26 26 25 26 27 27 28 29 30 30 30 30 32 33 32
1 2 3 6 5 3 4 7 5 2 2 4 5 4 2 3 3 4 5 2 3 4 2 6 2 2 5 6 4 2 2 6 7 7 8 7 6 6 6 5 3 1 1 1 5 7 8 9 10 10 11 13 15 18 18 17 22 25 22 22 23 22 23 25 26 26 27 27 26 25 25 27 27 27 27 27 27 29 30 31 30 31 32 33 33 33
2 1 2 4 1 3 6 7 4 5 4 2 3 3 5 5 4 3 2 3 4 3 5 7 1 3 3 6 4 3 4 6 5 6 7 6 6 6 6 5 3 3 3 1 6 7 8 9 9 10 11 12 15 18 18 18 22 24 21 21 22 22 23 25 25 26 26 26 26 25 25 26 27 27 27 27 28 29 30 31 30 30 33 34 34 34
6 5 2 1 2 2 2 3 2 1 3 4 5 4 5 4 4 4 4 4 5 3 6 6 2 2 2 6 5 5 6 6 5 6 8 7 6 6 6 5 4 4 4 2 5 5 6 8 8 9 10 12 15 18 19 19 22 23 21 21 22 22 23 25 24 25 25 25 26 25 24 26 27 26 27 27 27 28 29 30 30 30 32 34 34 34
5 3 4 4 3 2 4 3 5 6 6 7 6 5 5 3 4 4 4 3 1 4 6 4 1 1 4 8 7 6 7 7 7 8 8 7 6 6 6 5 5 4 3 3 4 3 5 6 6 8 10 13 15 17 18 19 22 23 20 20 22 21 23 25 24 24 25 24 25 25 24 26 26 25 26 26 26 27 28 29 29 30 31 33 33 33
4 5 6 5 3 4 5 4 3 5 5 5 4 3 4 2 4 4 4 3 2 5 7 4 1 2 4 7 7 7 7 8 8 8 8 7 6 6 6 5 4 3 3 4 4 4 4 5 6 9 11 13 14 15 16 18 21 22 20 20 22 21 22 25 24 24 24 24 25 24 24 25 26 25 26 26 26 27 28 29 28 29 30 31 32 32
2 4 4 2 2 3 3 2 2 1 2 2 1 4 4 3 3 0 2 2 3 5 8 6 1 2 5 5 6 7 6 7 6 7 6 6 7 6 4 4 4 3 4 4 4 4 4 5 7 8 10 12 13 13 14 17 21 21 19 20 22 21 23 25 24 24 24 24 24 24 24 26 25 24 25 26 26 27 28 28 28 29 29 30 31 31
1 3 5 1 0 2 1 2 3 4 1 3 2 5 2 2 4 2 3 5 3 4 5 3 1 4 5 5 4 3 5 6 5 6 5 6 8 6 3 4 4 3 4 4 4 4 4 6 8 7 9 11 11 11 12 16 20 20 19 19 21 21 22 24 24 24 24 24 24 24 25 26 25 25 25 26 27 27 28 27 27 29 28 29 30 31
1 4 5 2 3 1 3 3 2 3 0 2 3 2 2 3 6 2 3 3 1 2 4 3 3 6 5 5 5 4 6 8 6 5 6 7 7 6 4 4 3 3 3 4 4 5 5 7 7 6 8 10 9 9 11 15 19 19 18 18 20 20 21 23 24 24 24 24 24 24 25 26 25 25 25 26 26 27 28 27 28 28 28 29 30 30
1 3 6 1 1 3 4 2 1 1 2 3 2 2 2 2 4 3 1 3 4 1 4 4 5 6 4 4 6 6 7 9 7 5 7 6 6 6 4 4 3 4 4 4 5 7 7 8 7 6 7 9 9 8 11 15 18 18 16 17 19 19 21 23 23 23 24 24 24 24 25 25 25 25 26 26 26 27 27 28 28 29 28 29 30 30
2 2 6 2 2 4 1 3 3 4 1 3 2 2 2 2 1 1 1 1 2 2 5 5 5 5 2 3 6 7 8 9 8 6 6 7 6 5 4 4 4 4 4 4 4 5 7 8 6 4 6 8 8 8 11 16 19 18 14 15 17 17 19 21 22 23 23 23 23 24 25 25 25 26 26 26 26 27 27 28 29 29 28 29 30 30
1 1 4 4 1 2 3 3 0 3 3 2 2 2 1 2 2 1 0 2 1 2 4 4 5 5 5 6 5 7 9 8 7 6 6 7 6 4 4 5 5 4 3 3 4 5 7 7 5 4 5 8 9 8 12 17 19 17 13 14 16 17 18 21 22 23 24 23 23 24 25 24 25 26 26 26 26 27 27 28 29 29 29 29 29 30
1 2 3 6 4 1 1 1 3 3 1 1 2 2 2 1 0 0 1 2 3 2 2 3 5 6 6 5 5 8 8 7 7 7 6 7 6 4 5 5 4 4 3 3 3 5 7 7 4 4 5 8 10 11 15 18 18 16 13 13 15 17 18 20 22 23 23 23 23 24 25 24 25 26 26 26 27 27 28 28 29 29 28 29 29 29
1 1 2 4 4 2 3 4 3 4 4 4 2 2 2 1 2 2 2 2 2 3 4 1 4 9 7 3 5 7 6 6 7 6 6 7 5 5 6 5 5 4 4 3 4 6 8 7 4 4 4 7 10 12 15 17 17 15 13 12 15 16 17 19 22 23 23 22 23 24 24 24 25 26 26 27 27 27 28 29 29 28 28 29 29 29
1 2 0 4 5 3 5 3 1 2 2 3 2 2 3 3 4 4 2 4 1 1 2 2 2 8 7 4 5 6 5 6 6 6 7 7 5 5 5 4 5 4 3 4 5 7 8 7 5 4 4 6 9 11 14 16 16 14 12 12 14 15 16 18 21 22 22 21 22 23 23 24 25 26 26 26 27 28 29 29 29 29 28 29 29 29
0 2 1 5 5 3 4 3 2 3 2 1 2 1 3 3 3 5 5 3 0 3 1 2 3 8 7 4 5 5 5 6 6 6 7 6 5 5 5 5 5 4 3 4 5 7 8 7 5 4 3 5 8 10 13 15 16 14 11 12 14 14 15 18 20 21 21 21 22 23 23 24 25 26 26 26 27 28 29 29 29 29 29 29 30 29
1 0 1 3 6 7 6 6 5 5 2 2 3 2 3 4 6 4 2 3 1 4 4 4 4 8 7 3 3 5 6 7 8 7 6 6 5 3 5 5 5 4 4 4 4 5 7 6 5 4 3 4 7 9 12 15 16 13 11 12 13 13 15 18 20 20 20 21 22 23 23 24 25 26 26 26 27 28 29 29 29 30 30 29 30 30
1 1 1 2 2 3 5 5 5 4 3 2 1 1 2 4 7 4 2 3 1 4 5 5 6 10 12 9 8 9 8 9 10 8 5 5 3 3 5 5 5 4 4 5 5 5 5 6 6 4 2 4 7 9 11 15 16 13 12 13 13 12 15 18 19 19 20 20 21 22 24 24 25 26 26 26 27 28 29 30 30 31 31 30 30 29
2 1 2 5 5 5 6 8 5 2 4 6 5 3 3 4 6 5 4 3 5 2 2 7 9 11 17 16 13 13 11 11 11 8 6 5 1 4 5 5 4 4 4 4 4 4 4 5 6 3 1 3 7 8 10 14 15 13 13 13 12 13 15 17 18 19 19 19 20 22 23 24 25 25 25 26 27 28 29 30 31 31 31 30 30 29
3 3 3 5 7 8 8 11 8 3 6 10 8 5 5 5 5 6 6 6 3 2 5 9 5 6 16 17 15 15 13 11 11 8 6 4 3 4 4 4 4 4 4 3 4 4 4 5 5 3 1 4 7 8 10 14 15 13 13 13 12 13 16 17 17 18 19 18 19 21 23 24 24 24 25 26 27 28 29 30 30 31 31 31 30 29
5 3 4 3 7 10 10 12 10 5 7 9 8 7 6 6 9 11 11 8 5 3 11 11 6 9 16 18 17 15 12 11 10 8 5 3 3 4 4 4 5 4 3 2 3 4 4 4 4 3 1 4 7 9 11 14 14 13 13 12 12 14 15 16 17 18 18 18 18 20 22 23 24 24 25 26 27 28 29 30 30 30 30 30 30 30
4 3 4 2 7 10 9 10 8 5 5 7 8 9 9 9 12 13 12 8 7 11 16 16 16 18 18 16 16 14 11 9 8 6 4 3 2 5 5 5 5 4 3 2 3 4 4 5 5 3 2 4 7 9 11 13 13 13 12 12 13 13 13 15 16 17 17 17 18 19 21 22 24 24 25 26 27 28 29 30 29 30 31 30 30 31
1 3 3 2 5 10 8 6 4 4 5 9 11 8 8 8 9 10 9 5 6 11 15 13 13 16 14 10 10 11 8 6 6 6 5 5 4 5 5 5 5 4 3 2 3 4 5 5 5 4 2 4 6 9 11 13 13 12 12 13 13 12 12 14 15 16 16 17 18 19 20 22 23 24 24 26 27 28 29 29 30 32 33 32 31 32
1 2 2 5 4 8 6 6 9 8 4 7 12 10 6 6 6 6 5 6 7 8 9 7 7 11 9 4 5 8 6 6 8 7 5 5 4 5 5 6 5 5 4 3 3 5 5 5 5 3 1 3 5 9 11 12 12 11 11 13 12 11 12 13 14 15 16 16 17 18 19 21 22 23 24 25 26 27 29 30 32 34 35 33 32 33
2 1 2 3 1 7 6 7 10 10 6 4 7 6 6 6 5 5 4 7 9 6 4 5 8 10 8 6 9 11 8 7 8 6 4 6 4 5 6 6 5 5 5 4 4 5 5 5 5 3 0 2 5 8 11 11 10 10 11 12 11 10 11 13 13 14 15 16 17 17 19 20 21 22 23 24 26 27 29 31 33 34 34 33 32 32
2 3 1 1 1 6 9 8 7 6 4 4 5 6 6 6 7 7 7 9 9 7 5 8 10 12 11 10 10 11 9 7 6 5 5 5 5 5 5 5 5 5 4 4 4 5 7 6 5 3 2 3 4 7 10 10 10 11 11 11 10 9 11 12 13 13 15 16 17 17 19 20 20 21 22 24 26 28 29 30 31 33 33 33 32 30
3 3 1 1 2 4 6 7 7 3 4 8 7 4 5 5 7 8 10 11 10 10 10 12 14 14 12 11 10 9 9 7 5 6 7 5 4 5 5 5 5 5 4 4 5 6 7 6 5 5 3 4 5 7 9 10 10 11 11 10 9 9 10 12 12 13 15 16 16 17 19 19 20 20 22 24 26 27 27 28 30 31 31 31 30 29
5 3 1 1 2 2 4 4 2 6 10 11 8 3 3 1 2 1 8 11 10 10 10 11 13 13 11 10 9 8 7 6 5 6 6 5 5 6 5 5 5 5 5 5 7 8 7 6 7 6 4 4 5 7 9 10 10 11 10 9 8 9 9 11 12 13 15 16 16 17 18 19 19 20 22 24 26 26 27 28 29 30 30 29 30 29
5 4 1 1 1 1 1 2 3 6 10 9 4 1 2 1 2 2 3 9 8 7 8 8 10 11 10 10 10 7 5 6 6 6 5 6 6 6 6 6 5 6 7 7 8 7 6 6 7 6 4 4 5 7 9 10 11 11 10 9 8 9 9 10 12 14 15 16 16 17 18 18 19 20 22 24 25 26 27 27 28 29 28 28 29 29
4 3 2 1 2 1 2 4 4 5 6 6 6 5 2 2 5 6 1 7 9 7 8 8 8 10 9 9 9 6 5 6 8 6 5 6 6 6 5 6 7 7 8 10 9 7 6 7 7 6 5 5 5 7 9 10 11 10 9 9 9 8 8 10 12 14 15 15 16 16 17 18 19 20 21 23 24 25 26 27 27 28 28 27 27 27
4 2 4 3 2 1 3 1 2 2 6 8 8 7 4 3 6 6 2 7 8 6 7 8 8 9 9 9 8 4 4 6 9 7 4 7 8 7 6 7 8 9 10 11 10 8 8 8 8 7 6 5 6 7 9 10 10 10 9 9 9 8 8 10 12 14 14 15 15 16 17 18 19 19 21 23 24 24 25 26 26 26 27 26 26 26
4 2 3 2 3 2 3 2 4 4 8 10 8 6 5 4 7 6 6 8 7 7 7 7 7 9 8 7 6 3 2 6 9 7 4 7 8 9 10 8 9 12 13 12 10 8 8 9 9 8 8 8 8 8 9 10 10 10 9 9 9 8 8 10 12 13 13 14 15 16 16 18 19 19 20 21 23 23 23 24 25 26 26 26 25 25
1 1 2 3 4 4 4 3 4 5 8 9 6 5 6 3 5 2 6 7 5 6 7 7 8 9 8 6 5 5 6 8 8 7 3 6 6 8 11 11 11 13 14 13 11 9 9 10 9 9 9 9 8 8 9 10 10 10 9 9 10 9 9 10 11 11 11 13 15 16 16 17 18 19 20 20 21 22 22 23 24 24 25 25 25 24
1 1 1 3 3 3 4 3 4 6 6 4 3 3 4 1 1 5 7 5 5 6 8 7 8 8 7 7 7 7 8 9 8 6 4 6 6 7 9 10 10 11 12 13 12 11 10 10 10 10 10 10 10 9 9 10 10 11 10 10 10 9 10 10 10 10 10 12 14 15 16 17 18 19 20 20 20 21 22 23 23 23 24 24 23 22
4 3 2 3 4 2 1 1 2 7 6 6 6 1 2 4 5 7 6 6 7 8 8 7 7 7 7 7 8 8 9 9 7 6 6 6 7 7 10 13 13 13 14 14 13 13 11 10 10 11 12 12 12 11 9 10 11 11 11 11 10 10 10 10 9 9 9 12 14 15 16 17 18 20 20 20 21 22 23 24 24 23 23 23 23 22
4 4 3 4 3 3 2 3 4 5 6 7 5 4 7 8 7 6 6 9 10 8 6 6 7 7 8 8 8 8 8 8 8 7 6 6 6 7 10 13 15 15 16 15 14 13 12 11 11 12 13 14 14 12 11 10 11 12 13 12 10 10 11 10 8 8 9 11 13 14 15 16 18 20 20 21 22 23 23 24 24 24 24 23 22 21
6 6 4 5 5 4 5 8 10 7 5 6 7 9 12 11 9 7 8 10 10 8 6 6 8 8 7 8 8 7 7 7 8 7 6 6 7 8 10 13 16 16 17 16 15 14 13 12 11 12 13 15 15 14 12 11 11 12 13 12 10 10 11 9 8 7 9 11 12 13 14 15 16 18 19 21 23 24 24 25 25 25 24 23 22 20
6 5 4 3 4 4 6 10 13 13 12 10 10 11 12 11 10 9 8 9 10 10 8 6 8 9 7 6 6 6 7 8 8 7 7 6 6 8 11 13 15 16 17 16 16 16 14 12 11 12 14 15 16 16 14 12 12 12 12 11 10 10 10 8 7 7 8 9 10 11 13 14 16 17 18 20 22 23 25 25 25 24 23 21 21 21
4 2 3 3 3 4 6 9 10 11 12 12 12 11 10 10 10 9 8 9 10 10 9 8 9 9 7 6 7 8 9 8 7 7 7 6 6 8 10 12 14 17 18 18 17 17 15 13 13 14 15 16 17 17 16 14 13 12 11 11 11 10 9 7 7 7 7 8 9 9 11 14 15 16 17 19 21 23 24 24 24 23 22 22 22 21
2 1 2 4 5 5 8 13 14 12 10 12 13 12 10 11 12 10 10 10 10 9 9 8 8 6 5 6 7 8 9 8 8 8 7 6 6 7 10 13 16 17 18 18 17 17 16 15 14 14 16 17 18 17 17 15 13 12 11 11 11 10 8 7 7 6 6 7 7 8 10 12 13 14 16 19 21 23 23 23 22 20 20 21 22 21
3 2 3 3 5 7 9 14 15 11 10 13 14 11 9 10 11 11 11 9 8 9 9 8 8 7 7 7 7 7 8 9 8 7 7 6 6 7 11 15 17 18 18 19 19 19 18 16 15 15 17 18 18 17 17 16 13 12 12 11 11 10 8 8 7 5 6 6 7 7 9 10 11 12 14 16 20 22 22 20 18 17 17 18 18 17
3 5 4 2 4 8 9 12 11 6 8 13 12 9 10 10 9 9 11 10 9 9 9 8 9 9 9 11 10 8 8 9 9 8 8 7 8 11 14 16 16 17 18 19 19 19 19 17 15 15 17 18 17 18 18 16 14 13 12 12 12 11 9 8 7 6 5 6 6 7 8 9 11 11 12 14 17 20 21 19 16 13 13 16 16 15
6 7 6 6 7 11 13 15 10 4 8 15 13 9 9 7 6 9 12 12 11 11 9 8 9 10 9 11 12 11 9 9 11 10 8 8 12 15 16 16 17 17 18 20 20 20 20 18 16 16 17 18 18 18 19 17 15 14 13 12 12 11 9 8 7 6 5 5 6 6 7 9 10 10 11 13 14 16 19 20 18 15 14 14 15 14
Wind_Direction
46 68 50 27 333 309 301 290 226 230 211 121 99 95 136 135 285 262 248 245 113 71 273 248 250 260 243 230 217 207 196 198 234 33 10 318 329 318 291 285 322 7 3 23 37 38 34 29 26 23 19 13 12 13 9 8 5 4 6 4 3 4 3 4 4 3 1 359 358 357 358 357 355 356 357 357 358 357 356 357 358 358 358 358 358 358
58 69 30 326 311 308 313 321 339 349 38 70 94 88 84 83 275 266 228 259 78 82 274 323 337 285 258 240 222 188 183 210 213 152 313 310 319 291 270 295 353 6 354 12 27 34 33 30 29 24 18 15 16 15 12 10 5 2 7 5 3 4 4 6 5 3 2 1 359 357 356 356 354 355 355 354 355 356 355 356 357 359 358 357 358 358
42 44 327 303 360 22 15 18 35 47 47 38 70 100 50 317 282 296 331 315 83 109 274 355 355 295 273 251 220 184 183 214 195 158 190 286 310 293 287 2 18 2 347 359 14 26 32 33 32 24 18 19 21 18 14 10 5 4 7 6 5 5 5 5 4 4 3 1 0 359 356 356 354 354 355 353 353 355 355 355 356 358 358 358 358 358
55 347 306 311 42 49 28 19 38 49 46 37 56 90 287 307 27 312 308 308 274 193 269 345 339 294 298 294 212 209 197 186 172 159 169 285 295 302 335 60 42 6 348 353 1 13 27 34 31 24 21 23 22 18 13 8 6 6 6 6 6 5 5 4 2 4 3 1 1 360 357 356 356 355 354 355 355 356 356 354 355 357 357 358 358 357
88 295 306 358 40 57 42 17 33 48 17 360 82 105 249 289 300 243 281 316 328 342 325 353 341 298 320 3 215 244 217 167 185 168 5 331 295 313 1 54 30 2 1 14 360 3 28 34 28 25 26 25 22 17 11 8 9 7 5 5 5 5 5 3 2 3 3 3 1 359 358 357 357 357 357 358 356 356 355 353 353 354 355 356 356 357
47 318 340 35 34 60 61 23 23 72 34 333 278 162 201 229 246 286 326 5 17 351 313 48 17 302 313 317 233 246 209 212 245 304 310 305 295 325 352 359 351 350 23 33 6 18 37 34 27 27 29 27 23 17 11 8 8 6 4 5 5 5 5 3 3 5 5 5 3 1 360 358 356 355 356 357 354 353 353 351 351 352 353 354 354 355
9 343 26 50 42 49 47 16 338 95 83 357 278 176 169 150 134 340 17 48 54 305 280 87 81 284 311 302 245 233 189 223 261 280 269 281 292 317 324 263 325 351 43 28 1 41 46 33 29 31 32 31 24 15 7 5 6 6 4 4 4 5 5 4 3 5 7 6 4 2 0 358 356 353 351 352 351 352 352 350 350 351 352 353 354 354
353 356 17 32 40 39 27 348 301 87 87 341 223 148 151 147 143 114 85 89 195 271 312 14 106 274 301 272 248 217 168 227 259 272 271 274 279 300 302 254 263 19 87 31 357 53 49 35 31 35 40 33 21 12 6 4 6 5 4 2 4 5 4 4 4 5 8 6 3 1 359 357 356 353 350 349 350 351 350 350 351 350 350 352 353 353
330 9 15 29 33 23 351 286 271 126 83 269 209 153 170 170 148 112 92 98 268 38 343 315 39 353 282 273 276 261 199 257 272 267 264 267 270 290 294 259 246 153 130 61 65 78 51 34 31 39 43 28 18 15 9 6 5 4 3 1 3 6 3 3 4 5 7 6 2 0 359 356 355 353 350 349 350 351 350 350 350 350 350 350 351 352
248 57 80 76 46 330 268 268 251 166 304 263 172 125 86 93 93 87 96 95 22 45 286 278 8 57 284 283 292 319 266 262 270 266 260 261 263 280 285 255 239 201 195 63 91 89 51 34 34 40 37 24 22 19 11 6 2 2 2 1 3 5 3 2 3 4 5 5 3 0 358 356 354 352 350 350 350 351 351 350 350 349 349 348 349 350
309 25 111 105 85 250 252 270 238 196 260 291 103 66 46 46 45 61 77 86 59 15 264 254 160 95 298 286 242 226 231 221 240 276 274 271 272 281 282 249 222 213 215 115 98 90 49 38 39 36 32 27 24 17 11 5 360 1 1 360 2 3 2 2 3 4 4 4 2 360 358 356 354 353 351 349 349 350 350 349 349 348 347 347 347 348
350 13 6 254 251 248 275 303 315 278 317 27 36 23 38 14 13 28 360 38 65 318 262 243 235 134 231 275 257 241 241 216 217 256 267 269 263 271 279 248 221 216 203 128 108 98 50 41 41 38 34 28 21 13 11 4 358 360 359 359 2 1 2 2 2 4 2 1 1 359 358 356 355 353 352 349 347 347 348 346 346 345 346 346 345 346
347 337 317 305 295 13 37 8 351 354 15 32 22 31 48 7 7 15 338 10 51 272 251 231 284 235 229 257 261 249 248 235 222 230 244 248 245 266 277 243 225 224 183 125 124 115 61 43 40 42 35 25 19 12 9 4 358 358 357 359 1 360 0 1 2 3 1 359 359 358 356 354 354 353 351 350 347 346 346 344 343 344 344 344 343 344
338 307 333 354 340 14 57 64 354 333 1 20 17 53 72 64 29 354 314 338 320 278 282 285 224 250 286 277 246 225 228 229 225 227 230 226 228 257 262 224 224 229 158 134 140 124 77 52 50 49 37 23 17 11 8 5 0 357 356 358 358 357 358 0 2 1 359 358 356 357 355 353 353 352 350 350 348 346 345 344 343 342 342 342 342 342
22 316 325 16 341 12 53 119 164 197 319 312 172 107 96 115 103 290 258 287 290 287 299 319 21 247 293 284 226 215 232 238 235 238 238 233 236 252 245 206 224 221 147 143 155 139 103 71 68 57 38 23 15 11 9 6 2 358 355 355 356 355 355 358 0 359 357 356 354 355 354 352 353 351 349 349 347 346 345 344 343 342 342 342 341 340
94 264 260 246 317 76 79 241 154 114 6 282 130 82 45 170 141 159 212 211 246 304 295 304 296 247 262 272 252 255 283 279 268 258 251 248 253 262 244 204 219 208 152 157 169 162 137 93 81 64 41 26 16 13 8 3 2 358 352 351 353 353 353 356 358 357 355 354 353 353 351 352 353 350 349 347 346 346 345 344 343 342 342 341 340 340
54 273 278 337 357 102 173 232 193 123 67 343 42 43 262 181 131 122 277 261 25 360 282 294 304 293 313 315 310 329 302 289 289 270 244 239 254 271 251 212 210 200 171 171 181 181 154 110 89 65 43 28 20 14 4 1 1 357 350 348 350 350 351 353 356 355 353 353 352 351 349 351 352 350 349 347 345 345 344 344 344 342 342 342 341 341
128 284 286 264 283 262 203 180 305 251 125 81 49 237 221 93 92 106 311 336 26 27 276 311 299 297 332 321 312 330 306 291 291 267 247 246 264 271 240 202 197 192 180 180 186 181 147 113 93 66 45 30 24 11 1 1 359 355 350 346 348 348 348 351 353 353 352 351 350 349 348 349 350 349 348 347 345 344 344 344 344 343 342 341 341 341
118 317 295 243 187 285 324 75 350 319 29 106 152 210 120 74 359 20 73 357 4 315 293 306 292 280 246 242 295 311 297 291 290 273 260 259 265 262 221 193 199 186 176 187 191 178 145 120 98 71 49 35 30 12 2 1 356 353 349 344 346 347 345 347 351 351 350 350 349 347 347 348 348 348 348 348 346 345 345 344 344 344 342 341 341 342
108 95 290 283 231 298 2 52 265 296 337 32 36 350 31 129 176 224 128 157 166 289 293 310 318 296 235 221 254 276 281 289 288 284 272 260 258 245 206 197 198 184 191 203 185 171 151 133 111 80 61 46 38 18 4 360 354 352 347 343 345 345 342 345 349 350 348 349 349 347 347 348 347 347 348 348 347 346 345 345 344 344 342 341 341 343
18 117 260 299 327 329 320 254 189 182 167 61 35 354 331 348 110 140 219 158 140 170 245 308 310 283 258 225 223 254 273 275 268 274 273 263 256 223 199 203 197 184 205 205 167 162 158 148 128 91 68 45 31 14 4 360 354 350 346 344 345 344 343 344 347 347 346 348 349 347 347 347 346 348 349 348 348 347 346 345 345 344 342 341 342 343
7 129 241 299 329 305 249 240 188 166 165 154 151 190 191 153 88 66 314 292 107 156 190 203 287 276 268 228 216 240 262 270 264 264 269 271 256 214 203 202 187 188 207 180 150 162 166 161 141 101 67 30 18 10 4 359 354 350 347 344 345 344 343 343 344 344 345 348 349 347 347 346 346 348 349 348 348 347 346 346 345 345 343 342 342 343
173 106 292 279 275 255 262 267 139 127 165 157 164 177 155 137 119 120 230 269 330 278 214 151 243 268 264 230 217 226 249 275 275 260 262 271 254 216 205 193 182 197 197 147 153 171 169 163 144 108 62 25 17 8 1 357 353 351 346 344 345 344 341 341 341 341 344 348 348 347 347 346 347 349 349 349 348 347 347 346 345 346 345 343 343 343
170 89 15 290 289 303 311 314 5 36 64 152 247 190 155 158 139 145 171 182 282 276 240 119 249 269 272 240 217 235 272 297 295 273 254 257 261 220 187 179 189 193 157 141 165 171 161 154 136 108 67 30 19 5 357 353 352 350 346 345 346 343 339 339 339 340 344 348 348 347 347 347 348 349 350 349 347 347 347 346 346 347 346 345 345 344
300 96 48 338 336 343 348 349 346 352 15 214 242 209 158 121 103 112 125 91 341 241 178 152 243 266 272 253 245 288 312 320 312 296 257 250 272 217 171 180 196 175 144 163 175 156 150 147 129 114 81 35 18 1 352 351 350 349 347 347 346 342 338 337 338 341 344 347 347 346 347 347 348 349 350 348 347 347 347 347 348 348 348 347 346 345
251 205 129 85 30 334 319 316 312 307 294 254 193 156 153 127 128 143 112 92 240 236 164 171 245 277 289 298 309 313 321 322 316 315 295 279 280 173 171 190 195 167 158 182 171 145 150 145 134 126 81 31 10 357 349 349 348 346 343 346 346 340 336 337 338 340 344 346 346 345 346 348 348 349 349 348 348 347 347 349 349 349 349 348 346 346
89 259 213 170 183 210 237 252 259 302 300 283 272 237 202 174 148 129 115 166 203 214 220 230 242 275 290 299 311 314 321 321 315 321 319 302 235 172 186 198 193 168 169 178 148 139 152 144 140 138 72 13 360 352 345 345 345 341 339 343 345 337 334 337 338 339 342 345 345 344 346 347 347 348 350 349 348 348 348 349 350 350 349 348 347 347
89 305 261 194 221 234 240 259 272 298 273 262 265 249 202 185 158 151 190 212 174 47 280 250 223 273 286 293 303 306 311 313 310 314 309 279 200 187 197 198 190 169 159 138 121 141 158 152 157 159 46 360 355 345 337 341 340 335 336 340 340 335 334 336 337 337 341 343 344 344 345 346 347 349 350 350 350 349 349 350 351 350 350 349 349 347
115 272 252 194 252 256 250 265 271 264 259 250 244 242 226 191 176 194 222 215 162 222 260 264 282 285 280 287 294 296 297 300 297 291 284 268 201 188 193 203 203 183 153 106 127 164 172 164 170 163 66 3 353 337 331 336 335 332 334 336 334 332 333 336 335 335 340 342 343 343 343 345 347 350 351 351 350 349 349 350 351 351 350 350 350 348
130 255 247 213 288 282 268 272 260 228 260 271 246 230 222 207 199 214 233 217 193 237 256 269 283 280 274 275 280 284 284 284 284 284 301 320 255 200 198 219 223 193 163 144 163 184 176 163 167 153 78 3 346 331 325 329 331 331 330 328 330 331 334 335 333 334 340 341 342 342 343 345 347 349 351 350 350 349 349 351 351 351 353 353 352 350
163 269 258 96 332 301 292 306 294 221 241 276 277 255 225 224 227 230 238 225 213 247 260 268 278 278 273 262 260 271 280 289 299 308 315 302 251 211 205 230 231 194 174 180 181 183 173 162 158 144 74 2 337 321 320 324 327 326 322 323 328 331 334 332 330 335 339 339 341 344 345 346 346 349 350 349 349 349 349 352 353 355 357 356 352 351
173 281 333 54 7 291 292 338 321 301 276 274 285 279 232 210 226 225 217 199 195 232 268 285 280 275 278 278 272 278 289 306 307 305 304 290 247 208 214 235 226 192 181 196 188 175 170 163 155 143 64 350 321 314 316 319 320 319 317 320 326 328 330 329 331 336 336 337 342 346 347 347 347 348 348 347 347 348 351 356 357 358 358 355 352 351
143 117 351 48 356 273 291 327 314 319 349 318 276 248 202 205 233 248 247 219 203 211 264 272 263 272 293 320 310 304 310 313 303 291 287 293 266 218 220 225 209 192 187 188 183 171 165 166 164 159 206 310 305 312 315 312 311 312 311 314 320 324 326 329 334 336 333 337 344 348 348 349 349 348 346 346 346 349 355 357 357 358 357 354 353 351
111 110 186 164 197 273 294 318 332 4 11 283 238 189 198 228 223 226 251 241 217 207 227 252 269 283 295 301 296 296 299 293 281 268 268 279 263 229 220 209 191 188 187 172 161 163 165 169 176 184 214 268 291 308 311 305 302 304 305 308 315 322 325 330 335 333 331 338 346 349 350 350 350 347 345 346 348 351 355 356 355 356 356 354 353 350
125 120 218 205 178 266 309 350 7 9 250 261 271 232 224 219 182 205 256 261 242 237 244 259 273 277 281 284 278 277 280 276 272 275 274 261 223 197 202 211 200 190 191 176 161 169 176 181 189 195 215 256 282 297 302 302 301 303 304 306 312 318 324 330 333 330 331 339 347 350 352 351 349 347 346 348 350 352 354 354 353 355 354 353 352 348
144 153 206 209 203 274 352 26 348 282 281 294 312 297 235 186 122 255 286 273 247 236 237 249 263 266 272 279 274 272 283 292 292 277 260 232 197 180 188 205 202 194 197 191 179 179 188 199 202 204 219 248 274 288 295 300 303 303 303 304 307 313 321 329 330 329 332 341 347 349 352 351 347 347 349 350 352 353 354 353 352 353 353 351 351 350
130 144 134 319 237 213 336 271 263 305 315 316 309 228 183 200 182 159 285 276 255 228 221 238 260 267 272 277 278 287 313 323 312 285 246 216 198 190 192 196 198 204 201 193 186 184 195 207 203 204 221 242 269 286 293 297 301 302 301 300 302 309 320 327 326 327 333 339 344 348 350 350 348 348 350 352 352 353 354 352 351 352 353 351 351 352
109 145 148 196 269 88 57 307 321 348 320 281 252 251 243 183 168 143 144 287 277 243 216 219 246 265 275 282 286 310 349 330 307 290 246 219 207 196 197 200 202 202 195 184 177 176 189 199 199 207 227 244 264 281 291 295 298 301 297 294 301 310 319 322 321 325 333 337 341 347 350 350 350 351 352 352 352 352 352 352 352 352 353 353 352 352
71 71 101 113 300 20 93 255 265 263 267 258 249 256 248 166 135 105 21 292 271 244 212 205 237 263 271 273 276 317 357 316 302 297 233 208 208 198 198 207 202 197 193 189 185 185 193 200 205 215 230 241 252 274 292 296 296 296 290 289 299 307 311 313 317 324 331 334 340 347 351 352 353 354 354 353 353 352 351 352 353 353 354 354 354 354
58 38 81 127 245 217 151 213 244 237 254 261 255 240 222 152 104 69 338 288 254 233 218 211 245 263 261 258 255 244 253 270 289 297 223 191 199 201 202 209 200 191 189 189 189 192 194 200 208 214 222 234 248 275 296 297 290 287 284 284 291 296 299 305 315 324 328 334 342 348 352 355 356 356 357 355 354 355 355 354 354 354 355 355 357 358
88 148 158 168 208 201 179 227 270 260 253 261 259 205 179 126 74 41 280 262 234 234 232 223 247 260 254 246 236 224 230 240 264 288 228 170 187 208 211 214 206 198 196 193 191 192 193 201 213 219 228 241 254 277 294 294 288 283 279 280 283 286 291 299 312 322 327 336 344 347 353 357 357 358 360 359 357 358 359 359 357 356 357 357 358 358
210 158 157 167 193 200 184 203 278 283 253 205 148 166 170 126 298 249 244 238 232 254 256 240 242 250 247 239 232 236 250 251 258 275 233 187 198 208 200 194 185 185 190 190 189 194 196 203 214 222 233 244 253 269 284 290 288 282 276 276 278 281 286 296 310 320 327 338 344 346 352 358 0 1 2 2 1 360 1 2 0 359 0 360 358 357
189 174 226 209 187 171 143 130 303 288 257 157 123 113 203 193 234 253 267 275 264 265 270 257 242 238 240 247 245 244 255 264 265 264 241 215 215 207 192 185 180 180 182 185 192 201 203 206 215 223 232 240 248 259 272 281 285 282 277 276 279 281 286 296 309 318 330 341 343 347 353 358 3 4 4 5 5 2 2 3 1 1 3 1 357 353
197 179 219 240 202 151 157 214 228 236 217 172 164 234 229 217 240 269 285 288 281 269 262 260 255 240 228 240 255 253 253 262 265 264 255 233 220 210 197 193 193 192 191 193 200 204 204 210 218 223 230 237 243 251 260 271 280 281 277 277 280 281 284 296 307 316 333 343 343 347 354 360 4 5 5 6 5 4 4 2 1 2 4 1 356 350
217 190 195 232 228 191 197 231 249 259 238 195 210 245 252 252 264 267 262 274 280 269 249 251 263 257 234 234 250 254 250 254 258 260 256 236 220 213 207 203 203 202 202 203 206 206 208 214 218 220 226 234 240 246 254 264 273 277 278 279 279 279 283 293 302 314 335 343 343 348 354 0 5 6 5 5 3 3 3 0 359 1 1 359 355 347
235 194 179 223 260 275 254 248 256 268 271 258 246 250 258 263 269 265 258 261 266 265 257 250 257 261 247 230 236 246 249 251 257 261 253 238 226 216 212 209 206 204 204 203 203 206 209 210 213 217 223 232 239 243 249 258 267 276 281 278 273 276 283 288 295 312 334 342 342 349 356 2 5 5 5 3 2 3 3 359 359 359 358 357 354 347
276 189 191 237 274 296 276 261 252 252 260 268 270 268 265 261 259 259 256 254 259 264 260 249 251 258 250 226 227 246 254 250 254 263 256 238 230 219 208 206 204 202 203 205 205 207 206 202 208 218 224 231 238 241 247 255 265 275 280 274 268 273 280 282 289 308 330 338 342 350 1 4 2 2 3 1 360 2 2 1 1 359 356 356 352 349
278 186 226 238 231 234 258 270 270 264 260 264 269 272 273 269 266 262 255 253 260 268 264 253 246 242 238 232 228 240 256 254 247 254 253 235 228 220 209 208 208 206 208 210 208 206 204 205 212 222 229 234 238 240 246 254 264 271 273 269 268 269 272 274 281 300 322 334 342 354 4 4 359 360 3 1 357 356 357 360 1 359 358 358 354 352
146 187 213 216 248 264 273 277 280 286 280 266 260 258 259 260 261 263 266 268 271 272 271 267 254 234 233 245 237 230 249 257 245 239 244 238 228 221 216 214 214 212 211 210 208 207 208 213 220 227 234 240 241 242 246 254 262 268 268 267 267 266 266 268 273 289 313 328 344 356 2 2 1 2 5 3 358 356 358 2 1 355 357 4 3 1
155 220 205 160 273 274 270 269 273 289 290 276 268 257 250 250 251 264 279 288 282 271 270 275 274 265 255 254 246 226 236 254 247 233 234 235 227 224 222 217 215 214 211 208 208 209 212 218 226 232 238 242 242 242 246 252 258 261 264 267 267 265 263 263 266 280 302 322 340 352 358 1 3 5 6 5 359 356 360 10 18 14 4 4 8 12
193 211 183 175 231 254 265 270 267 251 268 276 279 269 255 251 257 273 283 287 280 271 264 263 271 277 273 262 248 228 223 244 246 233 229 238 235 230 226 219 213 210 208 205 203 205 211 218 225 232 237 241 242 243 246 250 253 257 261 265 266 264 261 259 261 272 291 314 331 342 353 360 1 3 6 7 1 354 354 2 17 31 31 18 13 16